Home   Weather   Apeldoorn   Past weeks

Flag for Netherlands Past Weather in Apeldoorn, Netherlands — Yesterday and Last 2 Weeks

55 °F

Drizzle. Cloudy.

Feels Like: 54 °F
Forecast: 42 / 56 °F
Wind: 7 mph from West

Location: Deelen

Current Time: Oct 28, 2016 at 4:10:58 PM

Latest Report: Oct 28, 2016 at 3:25 PM

Visibility: 1 mi

Pressure: 30.48 "Hg

Humidity: 100%

Dew Point: 55 °F

Location of ApeldoornLocation

Past Weather in Apeldoorn — Graph


Apeldoorn Temperature Yesterday

Maximum temperature yesterday: 57 °F (at 2:55 PM)
Minimum temperature yesterday: 46 °F (at 12:25 AM)
Average temperature yesterday: 52 °F

High & Low Weather Summary for the Past Weeks

High66 °F (Oct 16, 3:25 PM)100% (Oct 15, 1:25 AM)30.48 "Hg (Oct 15, 1:25 AM)
Low28 °F (Oct 23, 7:25 AM)50% (Oct 23, 3:25 PM)29.65 "Hg (Oct 15, 1:55 AM)
Average48 °F90%30.04 "Hg
* Reported Oct 13 2:25 PM — Oct 28 2:55 PM, Apeldoorn, Weather by CustomWeather, © 2016

Note: Actual official high and low records may vary slightly from our data, if they occured in-between our weather recording intervals... More about our weather records


Apeldoorn Weather History for the Previous 24 Hours

Scroll right to see more
Time TempWeatherWind HumidityBarometerVisibility
2:55 PM
Fri, Oct 28
55 °FDrizzle. Broken clouds.8 mph100%30.45 "Hg2 mi
2:25 PM55 °FFog.10 mph94%30.45 "Hg2 mi
1:55 PM57 °FLow clouds.8 mph88%30.45 "HgN/A
1:25 PM55 °FMostly cloudy.10 mph94%30.45 "HgN/A
12:55 PM55 °FMostly cloudy.12 mph94%30.45 "HgN/A
12:25 PM55 °FMore clouds than sun.10 mph88%30.45 "HgN/A
11:55 AM55 °FMostly cloudy.12 mph88%30.45 "HgN/A
11:25 AM55 °FMostly cloudy.12 mph88%30.45 "HgN/A
10:55 AM55 °FMostly cloudy.12 mph88%30.42 "HgN/A
10:25 AM55 °FMostly cloudy.13 mph88%30.42 "HgN/A
9:55 AM55 °FMostly cloudy.13 mph88%30.42 "HgN/A
9:25 AM54 °FMostly cloudy.12 mph94%30.42 "HgN/A
8:55 AM54 °FCloudy.10 mph94%30.42 "HgN/A
8:25 AM54 °FPartly sunny.10 mph94%30.42 "HgN/A
7:55 AM54 °FPartly cloudy.12 mph94%30.39 "HgN/A
7:25 AM54 °FFog.12 mph94%30.39 "Hg6 mi
6:55 AM54 °FFog.10 mph94%30.39 "Hg5 mi
6:25 AM54 °FFog.12 mph94%30.39 "Hg4 mi
5:55 AM54 °FFog.10 mph94%30.39 "Hg4 mi
5:25 AM54 °FFog.12 mph94%30.39 "Hg4 mi
4:55 AM54 °FFog.12 mph94%30.39 "Hg4 mi
4:25 AM54 °FFog.12 mph94%30.39 "Hg4 mi
3:55 AM54 °FFog.12 mph94%30.42 "Hg4 mi
3:25 AM54 °FFog.13 mph94%30.42 "Hg4 mi
2:55 AM54 °FFog.12 mph94%30.42 "Hg4 mi
2:25 AM54 °FFog.13 mph94%30.39 "Hg4 mi
1:55 AM54 °FFog.13 mph94%30.42 "Hg3 mi
1:25 AM54 °FFog.13 mph94%30.42 "Hg3 mi
12:55 AM54 °FFog.13 mph94%30.42 "Hg3 mi
12:25 AM54 °FFog.10 mph94%30.45 "Hg3 mi
11:55 PM
Thu, Oct 27
54 °FFog.12 mph94%30.42 "Hg3 mi
11:25 PM54 °FFog.13 mph94%30.42 "Hg2 mi
10:55 PM54 °FFog.13 mph94%30.42 "Hg2 mi
10:25 PM54 °FFog.13 mph94%30.42 "Hg2 mi
9:55 PM54 °FFog.10 mph94%30.42 "Hg3 mi
9:25 PM54 °FFog.12 mph94%30.42 "Hg3 mi
8:55 PM54 °FFog.10 mph94%30.42 "Hg3 mi
8:25 PM54 °FFog.8 mph88%30.42 "Hg4 mi
7:55 PM52 °FFog.9 mph94%30.42 "Hg3 mi
7:25 PM54 °FFog.9 mph88%30.45 "Hg4 mi
6:55 PM54 °FFog.9 mph88%30.45 "Hg4 mi
6:25 PM54 °FFog.8 mph88%30.45 "Hg4 mi
5:55 PM54 °FFog.8 mph88%30.45 "Hg4 mi
5:25 PM54 °FFog.10 mph88%30.45 "Hg4 mi
4:55 PM55 °FFog.10 mph82%30.45 "Hg5 mi
4:25 PM55 °FOvercast.12 mph82%30.45 "HgN/A
Weather by CustomWeather, © 2016

See weather overviewHow to use our weather pages